EW4347 Weather Reports


time (UTC)temp
C
wind
direction
speed
KPH
gust
KPH
rain 1hr
cm
rain 24hr
cm
rain mn
cm
humidity
%
barometer
mb
20260506002753 16 74 1.6 9.7 0.00 0.00 0.00 83 1006.3
20260506002252 16 75 6.4 9.7 0.00 0.00 0.00 82 1006.2
20260506001752 16 101 0.0 4.8 0.00 0.00 0.00 82 1006.4
20260506001637 16 101 0.0 4.8 0.00 0.00 0.00 82 1006.4
20260506001231 16 103 1.6 6.4 0.00 0.00 0.00 82 1006.5
20260506000731 16 103 3.2 6.4 0.00 0.00 0.00 81 1006.4
20260506000230 17 105 1.6 6.4 0.00 0.00 0.00 80 1006.6
20260506000122 17 105 1.6 6.4 0.00 0.00 0.00 80 1006.6
20260505235709 17 145 3.2 8.0 0.00 0.00 0.00 80 1006.6
20260505235209 17 172 1.6 4.8 0.00 0.00 0.00 79 1006.5
20260505234647 17 174 1.6 6.4 0.00 0.00 0.00 79 1006.0
20260505234609 17 174 1.6 9.7 0.00 0.00 0.00 79 1006.1
20260505234147 17 176 1.6 11.3 0.00 0.00 0.00 78 1006.2
20260505233647 17 151 6.4 12.9 0.00 0.00 0.00 78 1006.2
20260505233146 17 183 4.8 12.9 0.00 0.00 0.00 77 1006.0
20260505233044 17 184 6.4 12.9 0.00 0.00 0.00 77 1006.0
20260505232625 17 218 4.8 16.1 0.00 0.00 0.00 76 1006.0
20260505232125 17 201 6.4 16.1 0.00 0.00 0.00 75 1005.9
20260505231624 17 221 9.7 25.7 0.00 0.00 0.00 74 1005.8
20260505231533 17 228 8.0 25.7 0.00 0.00 0.00 74 1005.9
20260505231124 18 187 9.7 41.8 0.00 0.00 0.00 72 1005.8
20260505230624 18 222 17.7 41.8 0.00 0.00 0.00 68 1005.8
20260505230017 19 206 9.7 35.4 0.00 0.00 0.00 57 1005.8
20260505225602 19 165 14.5 35.4 0.00 0.00 0.00 56 1005.6
20260505225102 19 200 16.1 30.6 0.00 0.00 0.00 56 1005.6
20260505224601 20 166 12.9 43.5 0.00 0.00 0.00 55 1003.6
20260505224101 20 138 16.1 43.5 0.00 0.00 0.00 54 1003.1
20260505223600 20 87 14.5 35.4 0.00 0.00 0.00 54 1003.0
20260505223039 20 149 12.9 35.4 0.00 0.00 0.00 54 1002.9
20260505222539 20 199 8.0 33.8 0.00 0.00 0.00 53 1002.8
20260505222039 20 126 17.7 33.8 0.00 0.00 0.00 53 1002.7
20260505221539 21 110 9.7 33.8 0.00 0.00 0.00 52 1002.5
20260505221017 21 116 9.7 33.8 0.00 0.00 0.00 52 1002.4
20260505220517 21 89 14.5 33.8 0.00 0.00 0.00 52 1002.4
20260505220017 21 143 11.3 33.8 0.00 0.00 0.00 52 1002.6
20260505215516 21 172 12.9 35.4 0.00 0.00 0.00 52 1002.3
20260505215016 21 167 11.3 40.2 0.00 0.00 0.00 52 1002.3
20260505214516 21 118 16.1 40.2 0.00 0.00 0.00 51 1002.3
20260505214015 21 129 12.9 37.0 0.00 0.00 0.00 51 1002.3
20260505213515 21 152 16.1 37.0 0.00 0.00 0.00 51 1002.2
20260505213015 21 156 14.5 33.8 0.00 0.00 0.00 51 1002.3
20260505212514 22 87 11.3 40.2 0.00 0.00 0.00 50 1002.3
20260505212014 22 120 22.5 40.2 0.00 0.00 0.00 49 1002.3
20260505211513 22 116 17.7 40.2 0.00 0.00 0.00 49 1002.2
20260505211013 22 168 11.3 25.7 0.00 0.00 0.00 49 1002.1
20260505210513 22 126 9.7 35.4 0.00 0.00 0.00 49 1002.1
20260505210012 22 139 14.5 40.2 0.00 0.00 0.00 48 1002.2
20260505205512 22 140 20.9 40.2 0.00 0.00 0.00 48 1002.1
20260505204951 23 129 16.1 33.8 0.00 0.00 0.00 49 1002.1
20260505204450 23 96 12.9 38.6 0.00 0.00 0.00 48 1002.2
20260505203950 23 167 17.7 38.6 0.00 0.00 0.00 48 1002.2
20260505203450 23 157 11.3 25.7 0.00 0.00 0.00 47 1002.2
20260505202950 23 57 12.9 35.4 0.00 0.00 0.00 48 1002.3
20260505202449 23 168 11.3 35.4 0.00 0.00 0.00 47 1002.1
20260505201948 23 170 17.7 29.0 0.00 0.00 0.00 46 1002.1
20260505201448 23 170 8.0 29.0 0.00 0.00 0.00 49 1002.1
20260505200948 23 121 16.1 38.6 0.00 0.00 0.00 48 1002.3
20260505200448 23 125 17.7 38.6 0.00 0.00 0.00 46 1002.3
20260505200154 23 123 17.7 37.0 0.00 0.00 0.00 48 1002.5
20260505195948 23 152 17.7 37.0 0.00 0.00 0.00 46 1002.4
20260505195447 24 95 16.1 32.2 0.00 0.00 0.00 46 1002.5
20260505194947 24 127 19.3 33.8 0.00 0.00 0.00 46 1002.5
20260505194638 24 156 20.9 40.2 0.00 0.00 0.00 45 1002.6
20260505194447 24 121 19.3 40.2 0.00 0.00 0.00 45 1002.6
20260505193946 24 114 20.9 40.2 0.00 0.00 0.00 44 1002.7
20260505193446 24 107 17.7 37.0 0.00 0.00 0.00 44 1002.7
20260505193122 24 92 14.5 27.4 0.00 0.00 0.00 45 1002.8
20260505192945 24 154 12.9 29.0 0.00 0.00 0.00 45 1002.7
20260505192403 24 148 12.9 37.0 0.00 0.00 0.00 46 1002.9
20260505191903 24 117 9.7 37.0 0.00 0.00 0.00 44 1002.7
20260505191606 24 44 19.3 37.0 0.00 0.00 0.00 43 1002.8
20260505191402 24 144 16.1 38.6 0.00 0.00 0.00 44 1002.7
20260505190841 25 145 16.1 37.0 0.00 0.00 0.00 47 1002.8
20260505190340 24 131 12.9 37.0 0.00 0.00 0.00 46 1002.7
20260505190041 24 115 12.9 33.8 0.00 0.00 0.00 46 1002.8
20260505185819 24 160 17.7 37.0 0.00 0.00 0.00 46 1002.8
20260505185319 24 127 12.9 29.0 0.00 0.00 0.00 47 1002.8
20260505184757 23 185 16.1 33.8 0.00 0.00 0.00 47 1002.9
20260505184522 23 170 12.9 33.8 0.00 0.00 0.00 46 1002.9
20260505184257 23 154 20.9 40.2 0.00 0.00 0.00 46 1003.0
20260505183714 23 147 22.5 40.2 0.00 0.00 0.00 46 1003.0
20260505183214 23 170 14.5 30.6 0.00 0.00 0.00 46 1003.0
20260505183008 23 79 14.5 30.6 0.00 0.00 0.00 47 1003.1
20260505182714 23 137 11.3 40.2 0.00 0.00 0.00 47 1003.0
20260505182213 23 155 12.9 40.2 0.00 0.00 0.00 48 1003.1
20260505181713 23 139 17.7 37.0 0.00 0.00 0.00 46 1003.3
20260505181213 23 80 16.1 37.0 0.00 0.00 0.00 47 1003.2
20260505180713 23 110 14.5 37.0 0.00 0.00 0.00 47 1003.2
20260505180212 24 143 12.9 33.8 0.00 0.00 0.00 47 1003.4
20260505175651 23 108 16.1 35.4 0.00 0.00 0.00 45 1003.4
20260505175129 23 118 16.1 35.4 0.00 0.00 0.00 47 1003.6
20260505174629 23 152 17.7 38.6 0.00 0.00 0.00 46 1003.8
20260505174046 23 57 20.9 43.5 0.00 0.00 0.00 46 1003.8
20260505173525 23 104 19.3 43.5 0.00 0.00 0.00 46 1003.8
20260505173025 23 59 12.9 40.2 0.00 0.00 0.00 46 1003.8
20260505172504 24 45 9.7 29.0 0.00 0.00 0.00 48 1003.8
20260505172003 24 69 16.1 30.6 0.00 0.00 0.00 46 1003.8
20260505171502 24 45 12.9 30.6 0.00 0.00 0.00 46 1003.8
20260505171002 24 14 9.7 32.2 0.00 0.00 0.00 46 1003.9
20260505170502 23 115 12.9 32.2 0.00 0.00 0.00 46 1004.1
20260505170002 23 116 12.9 30.6 0.00 0.00 0.00 46 1004.0
20260505165501 23 143 14.5 37.0 0.00 0.00 0.00 47 1004.1
20260505165001 23 81 9.7 35.4 0.00 0.00 0.00 47 1004.3
20260505164501 23 111 17.7 35.4 0.00 0.00 0.00 45 1004.3
20260505164000 23 108 16.1 32.2 0.00 0.00 0.00 46 1004.4
20260505163500 23 118 11.3 27.4 0.00 0.00 0.00 47 1004.5
20260505163000 22 146 12.9 30.6 0.00 0.00 0.00 48 1004.6
20260505162459 22 65 14.5 30.6 0.00 0.00 0.00 46 1004.8
20260505161938 23 83 6.4 29.0 0.00 0.00 0.00 48 1005.0
20260505161438 23 87 11.3 30.6 0.00 0.00 0.00 47 1004.9
20260505160937 23 162 9.7 25.7 0.00 0.00 0.00 47 1005.1
20260505160437 23 91 8.0 27.4 0.00 0.00 0.00 49 1005.2
20260505153228 22 104 12.9 27.4 0.00 0.00 0.00 49 1006.0
20260505153136 22 109 11.3 27.4 0.00 0.00 0.00 47 1005.9
20260505152728 22 114 11.3 27.4 0.00 0.00 0.00 47 1005.9
20260505152228 22 91 11.3 29.0 0.00 0.00 0.00 46 1005.9
20260505151728 22 75 17.7 29.0 0.00 0.00 0.00 47 1005.8
20260505151619 22 66 12.9 25.7 0.00 0.00 0.00 47 1005.8
20260505151228 21 64 11.3 25.7 0.00 0.00 0.00 47 1005.6
20260505150727 22 121 14.5 24.1 0.00 0.00 0.00 46 1005.7
20260505150227 21 84 8.0 25.7 0.00 0.00 0.00 50 1005.9
20260505140641 19 22 9.7 25.7 0.00 0.00 0.00 51 1005.8
20260505140141 19 104 12.9 29.0 0.00 0.00 0.00 51 1005.8
20260505124555 17 23 8.0 17.7 0.00 0.00 0.00 57 1006.6
20260505124054 16 351 3.2 16.1 0.00 0.00 0.00 59 1006.7
20260505123554 16 52 8.0 16.1 0.00 0.00 0.00 59 1006.7
20260505123053 16 75 6.4 17.7 0.00 0.00 0.00 59 1006.6
20260505122553 16 85 6.4 22.5 0.00 0.00 0.00 60 1006.7
20260505122053 16 83 11.3 30.6 0.00 0.00 0.00 59 1006.9
20260505121553 16 47 8.0 22.5 0.00 0.00 0.00 63 1006.9
20260505121053 15 83 4.8 16.1 0.00 0.00 0.00 65 1006.9
20260505120552 15 5 6.4 22.5 0.00 0.00 0.00 63 1006.8
20260505120010 15 59 12.9 22.5 0.00 0.00 0.00 63 1006.7
20260505115509 15 47 6.4 16.1 0.00 0.00 0.00 66 1006.8
20260505115009 13 91 3.2 16.1 0.00 0.00 0.00 70 1007.0
20260505114509 13 44 1.6 9.7 0.00 0.00 0.00 75 1007.0
20260505114009 12 156 1.6 4.8 0.00 0.00 0.00 76 1006.9
20260505113447 12 150 0.0 9.7 0.00 0.00 0.00 76 1007.0
20260505113145 12 153 1.6 9.7 0.00 0.00 0.00 75 1007.1
20260505112947 12 124 3.2 9.7 0.00 0.00 0.00 75 1007.1
20260505112446 13 155 4.8 9.7 0.00 0.00 0.00 73 1007.1
20260505111946 12 100 3.2 14.5 0.00 0.00 0.00 72 1007.0
20260505111631 12 90 3.2 14.5 0.00 0.00 0.00 74 1007.0
20260505111446 12 106 4.8 14.5 0.00 0.00 0.00 74 1007.0
20260505110945 12 93 6.4 14.5 0.00 0.00 0.00 74 1007.0
20260505110445 11 5 1.6 16.1 0.00 0.00 0.00 80 1007.0
20260505110109 11 100 4.8 16.1 0.00 0.00 0.00 80 1007.1
20260505101943 7 60 1.6 9.7 0.00 0.00 0.00 93 1007.0
20260505101538 7 60 3.2 9.7 0.00 0.00 0.00 95 1007.0
20260505101442 7 60 3.2 9.7 0.00 0.00 0.00 95 1007.0
20260505100942 6 51 3.2 11.3 0.00 0.00 0.00 96 1006.9
20260505100442 6 22 1.6 4.8 0.00 0.00 0.00 96 1006.9
20260505095941 6 107 1.6 6.4 0.00 0.00 0.00 97 1006.8
20260505095441 6 105 1.6 11.3 0.00 0.00 0.00 96 1006.9
20260505094941 6 87 0.0 11.3 0.00 0.00 0.00 96 1006.9
20260505094440 6 83 1.6 6.4 0.00 0.00 0.00 97 1006.9
20260505093940 6 83 1.6 9.7 0.00 0.00 0.00 98 1007.0
20260505093440 5 72 3.2 9.7 0.00 0.00 0.00 98 1006.9
20260505092940 5 36 0.0 6.4 0.00 0.00 0.00 98 1006.9
20260505092440 5 29 1.6 6.4 0.00 0.00 0.00 98 1006.8
20260505091939 5 20 1.6 9.7 0.00 0.00 0.00 98 1006.9
20260505091439 4 50 1.6 9.7 0.00 0.00 0.00 98 1006.8
20260505090938 4 26 1.6 9.7 0.00 0.00 0.00 98 1006.9
20260505090438 4 72 0.0 9.7 0.00 0.00 0.00 98 1006.9
20260505085938 3 39 1.6 6.4 0.00 0.00 0.00 97 1007.0
20260505085437 3 39 1.6 6.4 0.00 0.00 0.00 97 1007.0
20260505084937 3 33 0.0 3.2 0.00 0.00 0.00 97 1007.0
20260505084437 3 32 0.0 1.6 0.00 0.00 0.00 97 1007.0
20260505083937 3 32 0.0 1.6 0.00 0.00 0.00 97 1007.0
20260505083436 3 32 0.0 1.6 0.00 0.00 0.00 97 1007.0
20260505082936 3 32 0.0 0.0 0.00 0.00 0.00 97 1007.0
20260505082436 3 32 0.0 0.0 0.00 0.00 0.00 97 1007.1
20260505081935 3 32 0.0 0.0 0.00 0.00 0.00 97 1007.2
20260505081353 3 32 0.0 0.0 0.00 0.00 0.00 97 1007.2
20260505080853 3 32 0.0 0.0 0.00 0.00 0.00 97 1007.3
20260505080331 3 32 0.0 0.0 0.00 0.00 0.00 97 1007.2
20260505075831 3 32 0.0 1.6 0.00 0.00 0.00 97 1007.2
20260505075331 3 32 0.0 1.6 0.00 0.00 0.00 97 1007.3
20260505074831 3 32 0.0 1.6 0.00 0.00 0.00 97 1007.2
20260505074330 4 32 0.0 1.6 0.00 0.00 0.00 97 1007.2
20260505073830 4 33 0.0 1.6 0.00 0.00 0.00 97 1007.1
20260505073329 4 33 0.0 1.6 0.00 0.00 0.00 96 1007.2
20260505072829 4 33 0.0 1.6 0.00 0.00 0.00 96 1007.2
20260505072329 4 33 0.0 1.6 0.00 0.00 0.00 96 1007.2
20260505071828 4 33 0.0 1.6 0.00 0.00 0.00 96 1007.2
20260505071654 4 33 0.0 1.6 0.00 0.00 0.00 96 1007.2
20260505071328 4 33 0.0 1.6 0.00 0.00 0.00 96 1007.1
20260505070828 4 33 0.0 1.6 0.00 0.00 0.00 96 1007.1
20260505070327 4 33 0.0 1.6 0.00 0.00 0.00 96 1007.1
20260505070140 4 33 0.0 1.6 0.00 0.00 0.00 96 1007.2
20260505065806 4 33 0.0 3.2 0.00 0.00 0.00 96 1007.2
20260505065306 4 33 0.0 3.2 0.00 0.00 0.00 96 1007.2
20260505064805 4 33 0.0 1.6 0.00 0.00 0.00 96 1007.1
20260505064624 4 33 0.0 1.6 0.00 0.00 0.00 96 1007.2
20260505064305 4 33 0.0 1.6 0.00 0.00 0.00 96 1007.1
20260505063805 4 33 0.0 0.0 0.00 0.00 0.00 96 1007.2
20260505063304 5 33 0.0 0.0 0.00 0.00 0.00 96 1007.2
20260505063058 5 33 0.0 0.0 0.00 0.00 0.00 96 1007.2
20260505062804 5 33 0.0 0.0 0.00 0.00 0.00 96 1007.2
20260505062242 5 33 0.0 3.2 0.00 0.00 0.00 96 1007.2
20260505061721 5 33 0.0 3.2 0.00 0.00 0.00 96 1007.1
20260505061544 5 33 0.0 1.6 0.00 0.00 0.00 96 1007.1
20260505061200 5 33 0.0 3.2 0.00 0.00 0.00 96 1007.1
20260505060639 5 33 0.0 3.2 0.00 0.00 0.00 96 1007.1
20260505060138 5 33 0.0 3.2 0.00 0.00 0.00 96 1007.1
20260505055617 5 33 0.0 3.2 0.00 0.00 0.00 96 1007.0
20260505055116 5 33 0.0 4.8 0.00 0.00 0.00 96 1007.0
20260505054616 5 33 1.6 4.8 0.00 0.00 0.00 95 1007.1
20260505054513 5 33 1.6 4.8 0.00 0.00 0.00 95 1007.1
20260505054055 5 28 0.0 3.2 0.00 0.00 0.00 95 1007.0
20260505053554 5 28 0.0 1.6 0.00 0.00 0.00 96 1007.1
20260505053054 5 28 0.0 1.6 0.00 0.00 0.00 96 1007.0
20260505052554 5 28 0.0 1.6 0.00 0.00 0.00 96 1007.0
20260505052054 5 28 0.0 4.8 0.00 0.00 0.00 96 1007.0
20260505051554 5 28 0.0 4.8 0.00 0.00 0.00 96 1006.9
20260505051053 5 27 0.0 3.2 0.00 0.00 0.00 96 1006.9
20260505050553 5 27 0.0 3.2 0.00 0.00 0.00 96 1006.9
20260505041425 5 27 0.0 1.6 0.00 0.00 0.00 94 1006.7
20260505040925 5 27 0.0 1.6 0.00 0.00 0.00 94 1006.7
20260505040424 5 27 0.0 1.6 0.00 0.00 0.00 94 1006.7
20260505035924 5 27 0.0 1.6 0.00 0.00 0.00 95 1006.6
20260505035424 5 27 0.0 1.6 0.00 0.00 0.00 94 1006.7
20260505034841 5 27 0.0 0.0 0.00 0.00 0.00 94 1006.6
20260505034341 5 27 0.0 1.6 0.00 0.00 0.00 94 1006.5
20260505033841 5 27 0.0 1.6 0.00 0.00 0.00 94 1006.6
20260505033340 6 27 0.0 1.6 0.00 0.00 0.00 93 1006.5
20260505032840 6 27 0.0 0.0 0.00 0.00 0.00 92 1006.5
20260505032340 6 27 0.0 0.0 0.00 0.00 0.00 93 1006.5
20260505031839 6 27 0.0 0.0 0.00 0.00 0.00 92 1006.5
20260505031339 6 27 0.0 0.0 0.00 0.00 0.00 92 1006.5
20260505030839 6 27 0.0 0.0 0.00 0.00 0.00 92 1006.5
20260505030339 6 27 0.0 1.6 0.00 0.00 0.00 92 1006.6
20260505025838 6 27 0.0 1.6 0.00 0.00 0.00 93 1006.6
20260505025338 6 27 0.0 1.6 0.00 0.00 0.00 93 1006.8
20260505024838 6 27 0.0 0.0 0.00 0.00 0.00 92 1006.8
20260505024648 6 27 0.0 0.0 0.00 0.00 0.00 91 1006.8
20260505024317 6 27 0.0 0.0 0.00 0.00 0.00 90 1006.8
20260505023816 6 27 0.0 1.6 0.00 0.00 0.00 90 1006.8
20260505023316 7 27 0.0 1.6 0.00 0.00 0.00 90 1006.8
20260505023134 7 27 0.0 1.6 0.00 0.00 0.00 90 1006.8
20260505022816 7 27 0.0 0.0 0.00 0.00 0.00 90 1006.9
20260505022316 7 27 0.0 0.0 0.00 0.00 0.00 89 1006.9
20260505021815 7 27 0.0 0.0 0.00 0.00 0.00 87 1006.8
20260505021607 7 27 0.0 1.6 0.00 0.00 0.00 87 1006.9
20260505021315 7 27 0.0 1.6 0.00 0.00 0.00 87 1006.8
20260505020815 7 27 0.0 3.2 0.00 0.00 0.00 87 1006.7
20260505020315 7 27 0.0 3.2 0.00 0.00 0.00 86 1006.9
20260505020055 7 27 0.0 4.8 0.00 0.00 0.00 85 1006.9
20260505015815 7 27 0.0 4.8 0.00 0.00 0.00 85 1006.8
20260505015314 7 28 1.6 3.2 0.00 0.00 0.00 86 1006.8
20260505014814 7 31 0.0 3.2 0.00 0.00 0.00 84 1006.8
20260505014540 8 31 0.0 3.2 0.00 0.00 0.00 84 1006.8
20260505014314 8 31 0.0 4.8 0.00 0.00 0.00 85 1006.8
20260505013813 8 32 1.6 4.8 0.00 0.00 0.00 86 1006.7
20260505013252 7 32 1.6 3.2 0.00 0.00 0.00 85 1006.7
20260505013025 7 32 1.6 3.2 0.00 0.00 0.00 86 1006.7
20260505012752 7 32 1.6 3.2 0.00 0.00 0.00 88 1006.7
20260505012252 7 33 0.0 1.6 0.00 0.00 0.00 88 1006.8
20260505011709 7 32 0.0 4.8 0.00 0.00 0.00 87 1006.6
20260505011501 7 33 0.0 4.8 0.00 0.00 0.00 87 1006.6
20260505011209 8 32 3.2 4.8 0.00 0.00 0.00 88 1006.5
20260505010709 8 60 0.0 1.6 0.00 0.00 0.00 87 1006.4
20260505010208 8 60 0.0 3.2 0.00 0.00 0.00 87 1006.3
20260505005708 8 60 0.0 4.8 0.00 0.00 0.00 85 1006.3
20260505005208 8 60 1.6 4.8 0.00 0.00 0.00 84 1006.3
20260505004707 8 96 1.6 4.8 0.00 0.00 0.00 84 1006.2
20260505004146 8 99 1.6 3.2 0.00 0.00 0.00 84 1006.1
20260505003646 9 100 0.0 3.2 0.00 0.00 0.00 85 1006.0
20260505003124 9 100 0.0 1.6 0.00 0.00 0.00 82 1005.9